Gainesville, FL

5:33 AM EDT on March 27, 2017 (GMT -0400)
Gainesville Regional

Weather History for KGNV - July, 2013

Change the Weather History Date:

Tuesday, July 23, 2013

  Actual Average Record
Temperature  
Mean Temperature 79 °F 81 °F  
Max Temperature 85 °F 91 °F 100 °F (1893)
Min Temperature 73 °F 72 °F 62 °F (1965)
Degree Days  
Heating Degree Days 0 0  
Month to date heating degree days 0 0  
Since 1 June heating degree days 0 0  
Since 1 July heating degree days 0 0  
Cooling Degree Days 14 16  
Month to date cooling degree days 362 368  
Year to date cooling degree days 1382 1317  
Since 1 June cooling degree days 850 807  
Growing Degree Days 28 (Base 50)    
Moisture  
Dew Point 73 °F    
Average Humidity 84    
Maximum Humidity 94    
Minimum Humidity 74    
Precipitation  
Precipitation 1.88 in 0.19 in 1.88 in (2013)
Month to date precipitation 12.69 4.61  
Year to date precipitation 29.94 27.72  
Snow  
Snow 0.00 in 0.00 in 0.00 in ()
Month to date snowfall 0.0 0.0  
Since 1 June snowfall 0.0 0.0  
Since 1 July snowfall 0.0 0.0  
Snow Depth 0.00 in    
Sea Level Pressure  
Sea Level Pressure 30.01 in    
Wind  
Wind Speed 6 mph (SW)    
Max Wind Speed 18 mph    
Max Gust Speed 26 mph    
Visibility 8 miles    
Events Fog , Rain , Thunderstorm    
T = Trace of Precipitation, MM = Missing Value Source: NWS Daily Summary

Daily Weather History Graph

Daily Weather History Graph

Search for Another Location

Airport or City:

Trip Planner

Search our weather history database for the weather conditions in past years. The results will help you decide how hot, cold, wet, or windy it might be!

Date:

Astronomy

Jul. 23, 2013 Rise Set
Actual Time 6:43 AM EDT 8:27 PM EDT
Civil Twilight 6:17 AM EDT 8:53 PM EDT
Nautical Twilight 5:45 AM EDT 9:25 PM EDT
Astronomical Twilight 5:12 AM EDT 9:58 PM EDT
Moon 9:06 PM EDT (7/23) 7:41 AM EDT (7/23)
Length of Visible Light 14h 36m
Length of Day
13h 43m
Full, 99% of the Moon is Illuminated
Jul 23
Full
Jul 29
Last Quarter
Aug 6
New
Aug 14
First Quarter
Aug 20
Full

Hourly Weather History & Observations

Time (EDT) Temp. Heat Index Dew Point Humidity Pressure Visibility Wind Dir Wind Speed Gust Speed Precip Events Conditions
12:43 AM 75.2 °F - 73.4 °F 94% 30.06 in 8.0 mi SW 5.8 mph - N/A   Scattered Clouds
12:53 AM 75.0 °F - 73.0 °F 94% 30.05 in 8.0 mi SSW 4.6 mph - N/A   Partly Cloudy
1:53 AM 73.9 °F - 72.0 °F 93% 30.05 in 9.0 mi SSW 4.6 mph - N/A   Clear
2:53 AM 73.9 °F - 71.1 °F 91% 30.03 in 10.0 mi SSW 5.8 mph - N/A   Clear
3:53 AM 75.0 °F - 71.1 °F 87% 30.04 in 10.0 mi WSW 6.9 mph - N/A   Partly Cloudy
4:53 AM 73.9 °F - 71.1 °F 91% 30.02 in 10.0 mi WSW 3.5 mph - N/A   Clear
5:53 AM 73.9 °F - 72.0 °F 93% 30.03 in 10.0 mi Calm Calm - N/A   Clear
6:53 AM 73.9 °F - 72.0 °F 93% 30.04 in 9.0 mi Calm Calm - N/A   Partly Cloudy
7:31 AM 75.2 °F - 73.4 °F 94% 30.06 in 10.0 mi Calm Calm - N/A   Mostly Cloudy
7:48 AM 75.2 °F - 73.4 °F 94% 30.06 in 10.0 mi Calm Calm - N/A   Scattered Clouds
7:53 AM 75.9 °F - 73.0 °F 91% 30.05 in 10.0 mi Calm Calm - 0.00 in Rain Light Rain
8:53 AM 75.9 °F - 73.0 °F 91% 30.06 in 10.0 mi South 6.9 mph - 0.00 in   Mostly Cloudy
9:27 AM 75.2 °F - 73.4 °F 94% 30.07 in 10.0 mi SSW 5.8 mph - N/A   Mostly Cloudy
9:53 AM 75.9 °F - 73.0 °F 91% 30.06 in 10.0 mi South 4.6 mph - N/A   Partly Cloudy
10:53 AM 79.0 °F - 73.9 °F 84% 30.05 in 10.0 mi WSW 4.6 mph - N/A   Partly Cloudy
11:53 AM 81.0 °F 85.8 °F 73.0 °F 77% 30.05 in 10.0 mi SW 8.1 mph - N/A   Mostly Cloudy
12:00 PM 82.4 °F 88.2 °F 73.4 °F 74% 30.06 in 10.0 mi SW 8.1 mph - N/A   Scattered Clouds
12:12 PM 82.4 °F 88.2 °F 73.4 °F 74% 30.06 in 10.0 mi SW 8.1 mph - N/A   Mostly Cloudy
12:53 PM 82.9 °F 90.2 °F 75.0 °F 77% 30.04 in 10.0 mi WSW 6.9 mph - N/A   Overcast
1:53 PM 84.9 °F 93.3 °F 75.0 °F 72% 30.01 in 10.0 mi SSW 6.9 mph - N/A   Mostly Cloudy
2:11 PM 84.2 °F 92.3 °F 75.2 °F 74% 30.02 in 10.0 mi South 5.8 mph - N/A   Mostly Cloudy
2:42 PM 80.6 °F 86.2 °F 75.2 °F 84% 30.01 in 2.5 mi SSW 9.2 mph 21.9 mph 0.16 in Rain Heavy Rain
2:50 PM 78.8 °F - 73.4 °F 83% 30.01 in 2.5 mi SSW 9.2 mph - 0.24 in Rain Light Rain
2:53 PM 78.1 °F - 73.9 °F 87% 30.00 in 6.0 mi SSW 9.2 mph - 0.24 in Rain Light Rain
3:14 PM 77.0 °F - 73.4 °F 89% 30.03 in 1.5 mi WSW 12.7 mph - 0.01 in Rain Heavy Rain
3:20 PM 77.0 °F - 73.4 °F 89% 30.03 in 0.2 mi WSW 16.1 mph - 0.16 in Fog , Rain Heavy Rain
3:25 PM 77.0 °F - 73.4 °F 89% 30.03 in 0.2 mi WSW 12.7 mph - 0.46 in Fog , Rain Heavy Rain
3:32 PM 77.0 °F - 75.2 °F 94% 30.04 in 0.5 mi WSW 9.2 mph - 0.79 in Fog , Rain Heavy Rain
3:53 PM 75.0 °F - 72.0 °F 90% 30.03 in 0.5 mi WSW 10.4 mph - 1.40 in Fog , Rain Heavy Rain
4:00 PM 75.2 °F - 71.6 °F 89% 30.03 in 1.0 mi WSW 10.4 mph - 0.13 in Rain Heavy Rain
4:07 PM 73.4 °F - 71.6 °F 94% 30.02 in 3.0 mi SW 6.9 mph - 0.15 in Rain Light Rain
4:17 PM 73.4 °F - 71.6 °F 94% 30.02 in 9.0 mi WSW 5.8 mph - 0.15 in Rain Light Rain
4:53 PM 73.0 °F - 69.1 °F 87% 30.00 in 9.0 mi WSW 12.7 mph - 0.17 in Rain , Thunderstorm Light Thunderstorms and Rain
5:20 PM 73.4 °F - 69.8 °F 88% 30.00 in 9.0 mi WSW 8.1 mph - 0.03 in Rain Light Rain
5:53 PM 73.9 °F - 71.1 °F 91% 29.98 in 6.0 mi SW 9.2 mph - 0.07 in Rain Light Rain
6:53 PM 75.9 °F - 72.0 °F 87% 29.96 in 10.0 mi SW 8.1 mph - 0.00 in   Clear
7:01 PM 75.2 °F - 71.6 °F 89% 29.97 in 10.0 mi SW 8.1 mph - N/A   Partly Cloudy
7:16 PM 75.2 °F - 73.4 °F 94% 29.97 in 10.0 mi WSW 5.8 mph - N/A   Mostly Cloudy
7:53 PM 75.9 °F - 73.9 °F 94% 29.96 in 8.0 mi WSW 4.6 mph - N/A   Overcast
8:02 PM 77.0 °F - 73.4 °F 89% 29.96 in 8.0 mi SW 4.6 mph - N/A   Mostly Cloudy
8:10 PM 77.0 °F - 73.4 °F 89% 29.96 in 8.0 mi SW 3.5 mph - N/A   Mostly Cloudy
8:53 PM 77.0 °F - 75.0 °F 94% 29.95 in 8.0 mi SSW 3.5 mph - N/A   Mostly Cloudy
9:04 PM 77.0 °F - 73.4 °F 89% 29.96 in 8.0 mi SW 5.8 mph - N/A   Overcast
9:22 PM 77.0 °F - 73.4 °F 89% 29.96 in 8.0 mi SW 5.8 mph - N/A   Mostly Cloudy
9:42 PM 77.0 °F - 73.4 °F 89% 29.97 in 8.0 mi SW 5.8 mph - N/A   Scattered Clouds
9:53 PM 77.0 °F - 73.9 °F 90% 29.97 in 8.0 mi WSW 5.8 mph - N/A   Partly Cloudy
10:53 PM 77.0 °F - 73.9 °F 90% 29.97 in 9.0 mi SW 3.5 mph - N/A   Partly Cloudy
11:53 PM 77.0 °F - 73.9 °F 90% 29.94 in 8.0 mi SSW 6.9 mph - N/A   Scattered Clouds